Home > Weather > Kemi > Past weeks

Flag for Finland Past Weather in Kemi, Finland — Yesterday and Last 2 Weeks

Now
63 °F

Sunny.


Feels Like: 63 °F
Forecast: 44 / 63 °F
Wind: 14 mph from Northeast

Location: Kemi Airport

Current Time: May 26, 2016 at 7:39:58 PM

Latest Report: May 26, 2016 at 6:50 PM


Visibility: 10 mi

Pressure: 30.12 "Hg

Humidity: 34%

Dew Point: 34 °F

Location of KemiLocation

Past Weather in Kemi — Graph

°F

Kemi Temperature Yesterday

Maximum temperature yesterday: 63 °F (at 4:50 PM)
Minimum temperature yesterday: 43 °F (at 12:20 AM)
Average temperature yesterday: 55 °F

High & Low Weather Summary for the Past Weeks

 TemperatureHumidityPressure
High64 °F (May 21, 11:50 AM)100% (May 13, 4:50 AM)30.12 "Hg (May 13, 4:50 AM)
Low28 °F (May 18, 3:20 AM)26% (May 20, 7:20 PM)29.47 "Hg (May 17, 8:50 AM)
Average47 °F76%29.84 "Hg
* Reported May 11 6:20 PM — May 26 6:20 PM, Kemi, Weather by CustomWeather, © 2016

Note: Actual official high and low records may vary slightly from our data, if they occured in-between our weather recording intervals... More about our weather records

Advertising

Kemi Weather History for the Previous 24 Hours

Scroll right to see more
 ConditionsComfort  
Time TempWeatherWind HumidityBarometerVisibility
6:20 PM
Thu, May 26
63 °FPassing clouds.10 mph34%30.12 "HgN/A
5:50 PM63 °FPassing clouds.12 mph37%30.12 "HgN/A
5:20 PM63 °FPassing clouds.13 mph34%30.12 "HgN/A
4:50 PM63 °FPassing clouds.16 mph34%30.12 "HgN/A
4:20 PM64 °FPassing clouds.13 mph34%30.12 "HgN/A
3:50 PM63 °FPassing clouds.15 mph34%30.12 "HgN/A
3:20 PM63 °FSunny.16 mph34%30.12 "Hg10 mi
2:50 PM63 °FPassing clouds.13 mph37%30.12 "HgN/A
2:20 PM63 °FPassing clouds.14 mph34%30.12 "HgN/A
12:20 PM59 °FPassing clouds.17 mph42%30.12 "HgN/A
11:50 AM59 °FPassing clouds.16 mph42%30.12 "HgN/A
11:20 AM59 °FPassing clouds.20 mph42%30.12 "HgN/A
10:50 AM59 °FPassing clouds.17 mph42%30.12 "HgN/A
10:20 AM59 °FPassing clouds.18 mph45%30.12 "HgN/A
9:50 AM57 °FPassing clouds.16 mph48%30.12 "HgN/A
9:20 AM57 °FSunny.18 mph51%30.12 "Hg10 mi
8:50 AM55 °FSunny.18 mph55%30.12 "Hg10 mi
8:20 AM55 °FPassing clouds.14 mph55%30.12 "HgN/A
7:50 AM54 °FSunny.16 mph63%30.12 "Hg10 mi
7:20 AM54 °FPassing clouds.13 mph63%30.12 "HgN/A
6:50 AM52 °FPassing clouds.12 mph67%30.12 "HgN/A
6:20 AM50 °FPassing clouds.12 mph67%30.09 "HgN/A
5:50 AM50 °FSunny.10 mph67%30.09 "Hg10 mi
5:20 AM48 °FSunny.12 mph71%30.09 "Hg10 mi
4:50 AM48 °FSunny.9 mph71%30.09 "Hg10 mi
4:20 AM48 °FSunny.9 mph71%30.09 "Hg10 mi
3:50 AM48 °FClear.9 mph71%30.09 "Hg10 mi
3:20 AM48 °FClear.9 mph71%30.09 "Hg10 mi
2:50 AM50 °FClear.10 mph67%30.09 "Hg10 mi
2:20 AM52 °FClear.9 mph62%30.09 "Hg10 mi
1:50 AM52 °FClear.9 mph62%30.09 "Hg10 mi
1:20 AM52 °FClear.9 mph62%30.07 "Hg10 mi
12:50 AM54 °FClear.10 mph58%30.07 "Hg10 mi
12:20 AM54 °FSunny.10 mph58%30.07 "Hg10 mi
11:50 PM
Wed, May 25
55 °FSunny.9 mph55%30.07 "Hg10 mi
11:20 PM57 °FSunny.9 mph51%30.07 "Hg10 mi
10:50 PM59 °FSunny.10 mph45%30.07 "Hg10 mi
10:20 PM59 °FSunny.10 mph45%30.07 "Hg10 mi
9:50 PM61 °FSunny.9 mph42%30.07 "Hg10 mi
9:20 PM61 °FSunny.9 mph39%30.07 "Hg10 mi
8:50 PM61 °FSunny.9 mph42%30.07 "Hg10 mi
8:20 PM61 °FSunny.9 mph45%30.04 "Hg10 mi
7:50 PM61 °FPassing clouds.9 mph45%30.04 "HgN/A
7:20 PM61 °FSunny.12 mph45%30.04 "Hg10 mi
Weather by CustomWeather, © 2016

See weather overviewHow to use our weather pages